Spokane Fairchild, WA

7:46 AM PDT on May 27, 2018 (GMT -0700)
Fairchild Air Force Base

Weather History for KSKA - October, 2013

Change the Weather History Date:

Thursday, October 17, 2013

  Actual Average Record
Temperature  
Mean Temperature 42 °F -  
Max Temperature 54 °F 55 °F 72 °F (2015)
Min Temperature 31 °F 35 °F 24 °F (1996)
Degree Days  
Heating Degree Days 22    
Moisture  
Dew Point 34 °F    
Average Humidity 88    
Maximum Humidity 100    
Minimum Humidity 53    
Precipitation  
Precipitation 0.00 in - - ()
Sea Level Pressure  
Sea Level Pressure 30.23 in    
Wind  
Wind Speed 2 mph (North)    
Max Wind Speed 9 mph    
Max Gust Speed -    
Visibility 6 miles    
Events Fog    
Averages and records for this station are not official NWS values.
T = Trace of Precipitation, MM = Missing Value Source: NWS Daily Summary

Daily Weather History Graph

Daily Weather History Graph

Search for Another Location

Airport or City:

Astronomy

Oct. 17, 2013 Rise Set
Actual Time 7:12 AM PDT 5:58 PM PDT
Civil Twilight 6:41 AM PDT 6:29 PM PDT
Nautical Twilight 6:05 AM PDT 7:05 PM PDT
Astronomical Twilight 5:30 AM PDT 7:40 PM PDT
Moon 5:17 PM PDT (10/17) 5:46 AM PDT (10/17)
Length of Visible Light 11h 47m
Length of Day
10h 45m
Waxing Gibbous, 98% of the Moon is Illuminated
Oct 17
Waxing Gibbous
Oct 18
Full
Oct 26
Last Quarter
Nov 3
New
Nov 9
First Quarter

Hourly Weather History & Observations

Time (PDT) Temp. Windchill Dew Point Humidity Pressure Visibility Wind Dir Wind Speed Gust Speed Precip Events Conditions
12:34 AM 33.8 °F - 32.0 °F 93% 30.18 in 10.0 mi Calm Calm - N/A   Clear
12:56 AM 39.2 °F - 32.0 °F 75% 30.18 in 10.0 mi South 2.3 mph - N/A   Clear
12:58 AM 39.2 °F - 32.0 °F 75% 30.20 in 10.0 mi South 1.2 mph - 0.00 in   Clear
1:58 AM 38.8 °F - 33.4 °F 81% 30.19 in 10.0 mi Calm Calm - N/A   Partly Cloudy
2:43 AM 33.8 °F - 32.0 °F 93% 30.16 in 10.0 mi West 2.3 mph - N/A   Overcast
2:57 AM 33.8 °F - 32.0 °F 93% 30.16 in 10.0 mi NNW 1.2 mph - N/A   Overcast
2:58 AM 34.5 °F - 31.6 °F 89% 30.19 in 10.0 mi NNW 1.2 mph - 0.00 in   Overcast
3:06 AM 33.8 °F 28.6 °F 32.0 °F 93% 30.16 in 10.0 mi NW 5.8 mph - N/A   Mostly Cloudy
3:25 AM 33.8 °F 27.7 °F 32.0 °F 93% 30.16 in 10.0 mi North 6.9 mph - N/A   Partly Cloudy
3:58 AM 32.4 °F 27.9 °F 29.8 °F 90% 30.21 in 10.0 mi NNE 4.6 mph - 0.00 in   Clear
4:43 AM 32.0 °F - 32.0 °F 100% 30.18 in 10.0 mi North 2.3 mph - N/A   Clear
4:58 AM 33.6 °F - 32.2 °F 94% 30.22 in 10.0 mi North 1.2 mph - 0.00 in   Clear
5:13 AM 32.0 °F 28.7 °F 32.0 °F 100% 30.18 in 10.0 mi NW 3.5 mph - N/A   Clear
5:52 AM 32.0 °F 27.5 °F 32.0 °F 100% 30.18 in 10.0 mi North 4.6 mph - N/A   Clear
5:58 AM 31.6 °F 27.0 °F 30.0 °F 94% 30.24 in 10.0 mi North 4.6 mph - 0.00 in   Clear
6:07 AM 33.8 °F - 32.0 °F 93% 30.18 in 10.0 mi NNE 2.3 mph - N/A   Clear
6:45 AM 32.0 °F 28.7 °F 32.0 °F 100% 30.19 in 10.0 mi North 3.5 mph - N/A   Clear
6:57 AM 32.0 °F 28.7 °F 32.0 °F 100% 30.20 in 10.0 mi NNW 3.5 mph - N/A   Clear
6:58 AM 33.4 °F 30.4 °F 32.9 °F 98% 30.25 in 9.0 mi NNW 3.5 mph - 0.00 in   Clear
7:52 AM 33.8 °F - 33.8 °F 100% 30.21 in 2.0 mi Calm Calm - N/A   Clear
7:54 AM 33.8 °F - 33.8 °F 100% 30.21 in 0.8 mi Calm Calm - N/A   Clear
7:56 AM 33.8 °F - 33.8 °F 100% 30.21 in 0.5 mi Calm Calm - N/A Fog Fog
7:58 AM 33.8 °F - 33.8 °F 100% 30.26 in 0.5 mi NE 1.2 mph - 0.00 in Fog Fog
7:59 AM 33.8 °F - 33.8 °F 100% 30.21 in 0.5 mi NE 1.2 mph - N/A Fog Fog
8:00 AM 33.8 °F - 32.0 °F 93% 30.21 in 0.5 mi NE 1.2 mph - N/A Fog Fog
8:02 AM 33.8 °F - 32.0 °F 93% 30.21 in 0.5 mi Calm Calm - N/A Fog Fog
8:03 AM 33.8 °F - 32.0 °F 93% 30.21 in 0.5 mi Calm Calm - N/A Fog Fog
8:08 AM 32.0 °F - 32.0 °F 100% 30.21 in 0.2 mi Calm Calm - N/A Fog Fog
8:10 AM 32.0 °F - 32.0 °F 100% 30.21 in 0.2 mi Calm Calm - N/A Fog Fog
8:11 AM 32.0 °F - 32.0 °F 100% 30.21 in 0.2 mi Calm Calm - N/A Fog Fog
8:12 AM 32.0 °F - 32.0 °F 100% 30.21 in 0.2 mi North 1.2 mph - N/A Fog Fog
8:25 AM 35.6 °F 31.7 °F 33.8 °F 93% 30.22 in 0.2 mi NNE 4.6 mph - N/A Fog Fog
8:27 AM 35.6 °F 32.8 °F 35.6 °F 100% 30.22 in 0.2 mi North 3.5 mph - N/A Fog Fog
8:33 AM 35.6 °F 32.8 °F 35.6 °F 100% 30.23 in 0.2 mi North 3.5 mph - N/A Fog Fog
8:34 AM 37.4 °F - 35.6 °F 93% 30.23 in 0.5 mi North 2.3 mph - N/A Fog Fog
8:35 AM 37.4 °F - 35.6 °F 93% 30.23 in 0.5 mi North 2.3 mph - N/A Fog Fog
8:37 AM 37.4 °F 34.9 °F 35.6 °F 93% 30.23 in 0.5 mi NNE 3.5 mph - N/A Fog Fog
8:39 AM 37.4 °F 34.9 °F 35.6 °F 93% 30.22 in 1.0 mi NE 3.5 mph - N/A   Clear
8:40 AM 37.4 °F 34.9 °F 35.6 °F 93% 30.22 in 1.5 mi NE 3.5 mph - N/A   Clear
8:42 AM 37.4 °F - 35.6 °F 93% 30.22 in 2.5 mi Variable 2.3 mph - N/A   Clear
8:44 AM 37.4 °F 34.9 °F 35.6 °F 93% 30.22 in 3.0 mi NE 3.5 mph - N/A   Clear
8:58 AM 37.2 °F - 36.0 °F 95% 30.27 in 7.0 mi ENE 2.3 mph - N/A   Clear
9:58 AM 43.2 °F 40.5 °F 37.9 °F 82% 30.28 in 10.0 mi North 4.6 mph - N/A   Clear
10:58 AM 46.0 °F 42.5 °F 38.1 °F 74% 30.29 in 10.0 mi NNE 6.9 mph - N/A   Clear
11:58 AM 48.9 °F - 39.4 °F 70% 30.30 in 10.0 mi NNE 9.2 mph - N/A   Clear
12:58 PM 50.7 °F - 39.4 °F 65% 30.28 in 10.0 mi NE 5.8 mph - N/A   Clear
1:58 PM 53.1 °F - 38.8 °F 59% 30.27 in 10.0 mi NNE 5.8 mph - N/A   Clear
2:58 PM 54.1 °F - 38.1 °F 55% 30.27 in 10.0 mi NW 5.8 mph - N/A   Clear
3:58 PM 54.5 °F - 37.6 °F 53% 30.28 in 10.0 mi NE 2.3 mph - N/A   Clear
4:58 PM 53.8 °F - 37.6 °F 54% 30.29 in 10.0 mi North 4.6 mph - N/A   Clear
5:58 PM 50.7 °F - 37.0 °F 59% 30.29 in 5.0 mi North 4.6 mph - N/A   Haze
6:58 PM 48.2 °F - 36.7 °F 64% 30.30 in 10.0 mi ESE 2.3 mph - N/A   Clear
7:58 PM 46.0 °F 44.8 °F 36.7 °F 70% 30.30 in 10.0 mi South 3.5 mph - N/A   Clear
10:58 PM 37.8 °F 34.2 °F 33.4 °F 84% 30.31 in 10.0 mi West 4.6 mph - N/A   Clear
11:58 PM 34.2 °F 30.0 °F 32.2 °F 92% 30.31 in 10.0 mi WSW 4.6 mph - N/A   Clear